This is the latest recevied weather packets stored in our database for station/object JF7BTK-10. If no packets are shown the sender has not sent any weather packets the latest 10 day(s).
| Time | Temp. | Humidity | Pressure | Rain* | Wind** | Luminosity | Snow |
|---|---|---|---|---|---|---|---|
| 1777847337 | 15° C | 93% | 986.7 hPa | 0 mm | - | - | - |
| 1777846435 | 14.44° C | 94% | 986.9 hPa | 0 mm | - | - | - |
| 1777845537 | 14.44° C | 97% | 986.9 hPa | 0 mm | - | - | - |
| 1777844637 | 13.33° C | 98% | 987.1 hPa | 0 mm | - | - | - |
| 1777843736 | 12.78° C | 99% | 987.8 hPa | 0 mm | - | - | - |
| 1777842836 | 12.78° C | 99% | 987.8 hPa | 0.25 mm | - | - | - |
| 1777841937 | 12.22° C | 98% | 988.1 hPa | 0.76 mm | - | - | - |
| 1777841037 | 12.22° C | 98% | 988.2 hPa | 1.27 mm | - | - | - |
| 1777840137 | 12.22° C | 98% | 988.3 hPa | 1.78 mm | - | - | - |
| 1777839237 | 12.22° C | 97% | 988.4 hPa | 1.27 mm | - | - | - |
| 1777838337 | 12.22° C | 96% | 988.9 hPa | 1.27 mm | - | - | - |
| 1777837437 | 12.22° C | 96% | 988.8 hPa | 0.76 mm | - | - | - |
| 1777836537 | 12.22° C | 98% | 989 hPa | 0.51 mm | - | - | - |
| 1777836153 | 12.22° C | 98% | 988.8 hPa | 0.51 mm | - | - | - |
| 1777835637 | 12.22° C | 98% | 989 hPa | 0.76 mm | - | - | - |
| 1777835253 | 12.22° C | 98% | 989.2 hPa | 0.76 mm | - | - | - |
| 1777834953 | 12.22° C | 95% | 989.2 hPa | 0.25 mm | - | - | - |
| 1777834736 | 12.22° C | 95% | 989.4 hPa | 0.25 mm | - | - | - |
| 1777834653 | 12.22° C | 95% | 989.6 hPa | 0.25 mm | - | - | - |
| 1777834353 | 12.22° C | 95% | 989.5 hPa | 0.25 mm | - | - | - |
| 1777834053 | 12.22° C | 95% | 989.3 hPa | 0.51 mm | - | - | - |
| 1777833837 | 12.22° C | 95% | 989.4 hPa | 0.51 mm | - | - | - |
| 1777833752 | 12.22° C | 95% | 989.4 hPa | 0.51 mm | - | - | - |
| 1777833453 | 12.22° C | 95% | 989.8 hPa | 0.51 mm | - | - | - |
| 1777832937 | 12.22° C | 95% | 990 hPa | 0.51 mm | - | - | - |
* Rain latest hour (hover to see other rain measurements)
** Current wind speed in m/s (hover to see current wind gust speed)